DMSP 5D-3 F19 DEB, 39632

Orbit data source: Space-Track

DMSP 5D-3 F19 DEB, 39632 is space debris in SSO originally from a launch on Thu, 03 Apr 2014 UTC launched from the Air Force Western Test Range (AFWTR). Debris objects in space refer to the collection of defunct objects orbiting the Earth. Examples of debris include non-operational satellites, rocket bodies, and fragments generated from explosions, collisions, or faulty payload assembly.

Loading next visibility...
Identifier
39632, 2014-015C
Orbit
SSO
Country
Flag of USUS
Related business
Manufacturer
LM/EW
Mission
Spacecraft
Bus & Motor
Unknown
Mass
Unknown
Launch date (UTC)
2014-04-03 (12 years ago)
Launch vehicle
Unknown
Launch site
Air Force Western Test Range (AFWTR)
Object type
Payload
Rocket body
Debris
Shape & HBR
Unknown shape, 0.1 m
Radar Cross Section
Medium (>0.1 m² and <1 m²)

Expand to show TLE details & history
Last TLE update: 2 days ago

TLE from 2 days ago
0 DMSP 5D-3 F19 DEB
1 39632U 14015C   26171.30938756  .00001271  00000-0  54838-3 0  9994
2 39632  98.6625 183.4938 0007129 105.6415 254.5552 14.26235095632206
Epoch: 2026-06-20T07:25Z
TLE epoch observation values (Epoch: 2026-06-20T07:25:31.085Z)
Latitude
-0.00002°
Longitude
163.58842°
Altitude
808.635 km
Speed
7.448 km/s
True Right ascension
12h 13m 58s
True Declination
0° 00' 00"
Sunlit
Object was in daylight at epoch
Visualization orbit readout
Latitude
Unknown
Longitude
Unknown
Altitude
Unknown
Speed
Unknown
Apparent Right ascension
Unknown
Apparent Declination
Unknown
Sunlit
N/A
Visualization observer readout
Local Sidereal Time
23:07:59
Azimuth
Unknown
Elevation
Unknown
Doppler factor
Unknown
Orbital elements
Apogee altitude
806.609 km
Perigee altitude
796.373 km
Semi-major axis
7,179.628 km
Eccentricity
0.00071
Inclination
98.6625°
RAAN
183.4938°
Arg. of periapsis
105.6415°
True anomaly
254.47648°
Mean anomaly
254.5552°
Eccentric anomaly
254.51584°
Mean motion
3.56772 °/min
Orbital period
100.9 mins
BSTAR
0.00054838
Loading maneuver chart data...
Computing Atmospheric mass density...
Loading historical data...
Loading historical data...
Loading historical data...
Loading historical data...
Loading historical data...
Loading historical data...
Loading historical data...

Documentation

Showing up to 5 results
|